SAUDICOMSAT 4

Last updated on July 6, 2021, 3:39 p.m. UTC

1 31127U 07012L   21187.09746384  .00000050  00000-0  19838-4 0  9992
2 31127  98.1663 130.3729 0068775 139.5658 221.0683 14.60386463757387
UTC
Height (km)
Latitude
Longitude
Inclination
Orbital Period
UTC large
Height (km)
Speed (km/s)
/
Latitude / Longitude
Inclination (degrees)
Orbital Period (minutes)
Azimuth
Elevation
Range (km)
Doppler Factor
iOS Compass Heading
iOS Angle